Temp
-12 -12 -12 -12 -12 -12 -12 -12 -12 -13 -13 -13 -13 -13 -13 -13 -13 -14 -13 -14 -14 -14 -14 -14 -14 -15 -15 -15 -15 -15 -15 -15 -15 -16 -16 -16 -17 -18 -18 -19 -20 -21 -22 -23
-12 -13 -12 -12 -12 -12 -13 -13 -13 -13 -13 -13 -13 -13 -13 -13 -13 -13 -14 -14 -14 -14 -14 -14 -15 -15 -15 -15 -15 -15 -15 -15 -16 -16 -16 -16 -17 -18 -18 -20 -21 -22 -22 -24
-12 -12 -12 -13 -13 -13 -13 -13 -13 -13 -13 -13 -13 -12 -13 -14 -14 -14 -14 -14 -14 -14 -14 -15 -15 -15 -15 -15 -16 -16 -16 -16 -16 -17 -17 -17 -18 -19 -20 -22 -22 -22 -23 -24
-12 -12 -13 -12 -12 -12 -12 -12 -13 -13 -13 -13 -13 -12 -13 -14 -14 -14 -14 -14 -14 -15 -15 -15 -15 -15 -15 -15 -16 -16 -16 -16 -16 -17 -17 -18 -19 -20 -20 -21 -22 -23 -23 -25
-12 -12 -12 -12 -12 -12 -12 -12 -12 -13 -13 -12 -13 -13 -12 -14 -14 -14 -14 -15 -15 -15 -15 -15 -15 -15 -15 -16 -16 -16 -16 -16 -17 -17 -17 -18 -19 -20 -21 -22 -23 -23 -24 -26
-12 -12 -12 -12 -12 -12 -12 -12 -12 -13 -12 -12 -13 -13 -13 -13 -13 -14 -14 -14 -14 -14 -14 -15 -15 -15 -15 -16 -16 -16 -16 -16 -17 -17 -18 -19 -20 -20 -22 -22 -23 -23 -24 -26
-12 -12 -12 -12 -12 -12 -12 -12 -12 -12 -12 -12 -12 -12 -13 -13 -13 -14 -14 -14 -14 -14 -14 -15 -15 -15 -15 -15 -15 -15 -16 -16 -17 -18 -18 -19 -20 -21 -22 -23 -23 -23 -25 -26
-12 -12 -12 -12 -13 -13 -12 -12 -12 -12 -12 -12 -12 -12 -13 -12 -14 -14 -14 -14 -14 -14 -14 -14 -15 -15 -16 -15 -15 -15 -16 -17 -17 -18 -19 -19 -20 -21 -22 -23 -23 -23 -25 -26
-12 -13 -13 -12 -13 -13 -12 -12 -12 -12 -12 -12 -12 -12 -12 -13 -14 -14 -15 -14 -14 -14 -13 -14 -14 -15 -16 -16 -16 -16 -16 -17 -17 -18 -19 -20 -21 -21 -23 -23 -23 -24 -25 -26
-13 -13 -13 -13 -13 -13 -13 -13 -12 -12 -12 -12 -11 -11 -12 -13 -13 -14 -14 -14 -13 -13 -13 -14 -15 -15 -15 -15 -16 -16 -17 -17 -17 -18 -19 -20 -21 -22 -23 -23 -23 -24 -25 -26
-14 -14 -13 -13 -13 -13 -13 -12 -12 -12 -12 -12 -11 -11 -14 -13 -13 -14 -13 -13 -13 -13 -14 -14 -15 -15 -15 -15 -16 -16 -17 -18 -18 -19 -20 -20 -21 -22 -23 -23 -24 -24 -25 -26
-15 -14 -13 -14 -13 -13 -13 -13 -13 -13 -13 -12 -11 -11 -14 -14 -14 -14 -13 -13 -13 -14 -14 -15 -15 -15 -15 -15 -16 -17 -17 -18 -18 -19 -20 -20 -21 -22 -23 -24 -24 -24 -25 -26
-16 -14 -14 -13 -13 -13 -13 -14 -14 -14 -13 -12 -11 -11 -14 -14 -15 -14 -13 -13 -13 -14 -14 -15 -15 -15 -15 -16 -16 -17 -17 -18 -19 -20 -20 -21 -21 -22 -23 -24 -24 -24 -25 -26
-16 -14 -14 -14 -14 -14 -14 -14 -14 -14 -12 -11 -11 -12 -14 -14 -15 -14 -13 -13 -14 -14 -15 -15 -15 -15 -16 -16 -16 -17 -17 -18 -19 -20 -20 -21 -22 -23 -23 -24 -24 -24 -25 -26
-15 -14 -14 -14 -14 -14 -13 -13 -13 -12 -13 -11 -11 -12 -14 -15 -15 -15 -14 -14 -14 -15 -15 -15 -15 -16 -16 -16 -16 -16 -17 -18 -19 -20 -20 -21 -22 -23 -23 -24 -24 -25 -25 -26
-15 -15 -14 -15 -15 -14 -13 -12 -13 -13 -13 -12 -13 -12 -15 -15 -15 -15 -15 -14 -14 -15 -15 -15 -16 -16 -16 -16 -16 -17 -17 -18 -19 -20 -21 -21 -22 -23 -23 -24 -25 -25 -25 -26
-17 -16 -16 -15 -16 -15 -12 -11 -13 -13 -13 -14 -12 -13 -15 -14 -15 -15 -15 -14 -15 -15 -15 -16 -16 -16 -16 -16 -16 -17 -17 -18 -19 -20 -21 -21 -22 -23 -24 -24 -25 -25 -25 -26
-16 -16 -17 -16 -16 -15 -11 -13 -13 -13 -14 -14 -13 -14 -15 -15 -14 -14 -15 -15 -15 -15 -15 -16 -16 -16 -16 -16 -16 -17 -17 -19 -20 -21 -21 -21 -22 -23 -24 -24 -25 -25 -25 -26
-17 -17 -17 -17 -16 -14 -11 -11 -12 -13 -13 -14 -14 -15 -15 -14 -13 -14 -15 -14 -14 -15 -16 -16 -16 -17 -16 -16 -17 -17 -18 -19 -20 -20 -21 -21 -22 -23 -24 -25 -25 -25 -26 -26
-17 -17 -17 -17 -17 -13 -10 -13 -14 -14 -9 -14 -16 -15 -15 -15 -14 -15 -15 -15 -15 -15 -16 -16 -16 -17 -17 -16 -17 -17 -18 -19 -20 -21 -21 -21 -22 -23 -24 -25 -25 -25 -26 -26
-17 -17 -17 -17 -17 -14 -12 -13 -14 -13 -11 -15 -17 -16 -15 -15 -15 -15 -15 -15 -15 -15 -16 -16 -17 -17 -17 -17 -17 -17 -18 -19 -20 -21 -21 -22 -22 -23 -24 -25 -25 -26 -26 -26
-17 -17 -17 -18 -17 -14 -13 -14 -14 -15 -16 -17 -17 -17 -16 -15 -15 -15 -14 -15 -16 -16 -16 -16 -17 -17 -17 -17 -17 -18 -18 -20 -21 -21 -21 -22 -22 -23 -24 -25 -25 -26 -26 -26
-18 -16 -17 -17 -16 -16 -15 -15 -15 -16 -16 -17 -17 -17 -16 -15 -15 -15 -14 -16 -16 -16 -16 -16 -17 -17 -17 -17 -17 -18 -19 -20 -21 -21 -21 -22 -22 -23 -24 -25 -25 -26 -26 -27
-18 -17 -18 -18 -15 -15 -16 -15 -16 -17 -17 -17 -17 -16 -16 -16 -16 -15 -15 -16 -16 -16 -16 -16 -17 -17 -17 -17 -18 -18 -19 -20 -20 -20 -21 -22 -22 -23 -24 -25 -26 -26 -26 -27
-18 -18 -17 -17 -16 -16 -15 -16 -16 -17 -17 -17 -18 -17 -17 -16 -15 -15 -15 -16 -16 -16 -17 -17 -17 -17 -17 -18 -18 -19 -20 -20 -20 -21 -21 -22 -22 -23 -24 -25 -26 -26 -26 -27
-17 -17 -18 -16 -17 -17 -17 -17 -17 -17 -17 -17 -17 -17 -17 -17 -17 -16 -16 -16 -17 -16 -17 -17 -17 -17 -18 -18 -19 -20 -20 -20 -20 -21 -22 -22 -22 -23 -24 -25 -26 -26 -27 -27
Height
5785 5786 5785 5783 5782 5782 5782 5782 5782 5780 5779 5779 5778 5779 5777 5777 5776 5771 5769 5767 5766 5764 5762 5759 5756 5752 5748 5743 5737 5731 5725 5718 5709 5700 5690 5680 5669 5656 5643 5630 5613 5595 5578 5562
5780 5780 5780 5778 5777 5776 5775 5775 5775 5774 5772 5772 5771 5774 5773 5770 5770 5767 5765 5762 5760 5758 5756 5753 5750 5746 5742 5737 5731 5725 5719 5711 5703 5695 5685 5675 5663 5651 5639 5622 5606 5589 5573 5556
5773 5775 5774 5773 5772 5770 5769 5767 5766 5766 5765 5764 5764 5768 5767 5765 5764 5761 5759 5756 5754 5752 5750 5747 5744 5740 5736 5731 5726 5720 5712 5705 5696 5687 5678 5667 5656 5642 5627 5614 5601 5586 5570 5551
5769 5769 5769 5769 5768 5766 5765 5763 5759 5758 5758 5758 5757 5758 5761 5760 5757 5755 5750 5749 5748 5746 5744 5741 5738 5735 5731 5726 5719 5713 5706 5699 5690 5681 5672 5661 5650 5639 5626 5611 5596 5580 5564 5548
5764 5763 5763 5762 5762 5760 5761 5757 5755 5752 5751 5752 5754 5752 5756 5754 5751 5746 5745 5743 5742 5740 5738 5735 5732 5728 5724 5719 5713 5706 5699 5691 5683 5674 5665 5655 5645 5633 5619 5604 5589 5574 5559 5545
5754 5756 5756 5756 5755 5754 5754 5752 5749 5747 5745 5746 5749 5749 5752 5747 5743 5740 5738 5737 5736 5734 5732 5729 5725 5722 5718 5713 5707 5700 5693 5685 5677 5669 5660 5650 5639 5627 5614 5601 5586 5572 5557 5542
5748 5748 5749 5749 5748 5748 5748 5747 5743 5741 5738 5738 5742 5744 5746 5742 5736 5733 5731 5731 5729 5728 5725 5721 5718 5716 5712 5707 5701 5694 5687 5679 5671 5663 5654 5645 5634 5622 5610 5598 5585 5571 5555 5541
5739 5740 5742 5744 5742 5741 5741 5742 5739 5732 5733 5730 5734 5737 5741 5734 5729 5727 5724 5723 5721 5719 5716 5713 5712 5709 5705 5700 5694 5687 5681 5674 5665 5657 5648 5639 5629 5618 5606 5594 5581 5567 5554 5541
5730 5730 5735 5735 5734 5733 5735 5735 5734 5728 5725 5722 5728 5732 5735 5727 5722 5720 5717 5715 5713 5711 5708 5706 5705 5702 5698 5693 5687 5680 5674 5667 5660 5652 5643 5634 5624 5613 5601 5589 5577 5565 5551 5537
5720 5722 5724 5725 5727 5727 5725 5728 5726 5725 5719 5717 5720 5724 5726 5722 5717 5713 5711 5708 5706 5704 5702 5701 5698 5695 5691 5686 5679 5673 5667 5660 5654 5645 5637 5629 5619 5608 5597 5585 5574 5562 5548 5534
5711 5712 5715 5715 5718 5719 5717 5717 5718 5716 5715 5713 5710 5721 5719 5716 5713 5708 5705 5702 5700 5700 5697 5694 5691 5688 5684 5679 5673 5666 5660 5653 5646 5639 5632 5625 5615 5604 5593 5583 5572 5559 5547 5533
5702 5700 5700 5705 5706 5708 5708 5709 5709 5706 5706 5705 5707 5716 5708 5708 5705 5700 5698 5696 5695 5693 5690 5687 5685 5681 5677 5672 5665 5659 5653 5646 5640 5633 5627 5620 5610 5600 5590 5579 5568 5557 5544 5532
5690 5687 5689 5690 5695 5699 5700 5702 5699 5697 5694 5695 5696 5709 5703 5700 5695 5691 5691 5689 5687 5686 5683 5680 5677 5673 5669 5664 5658 5652 5645 5640 5634 5628 5622 5615 5605 5596 5587 5576 5565 5554 5543 5531
5673 5674 5676 5681 5687 5687 5687 5690 5689 5686 5682 5691 5688 5694 5702 5693 5685 5681 5682 5680 5680 5679 5676 5672 5668 5666 5661 5656 5651 5645 5639 5633 5628 5623 5616 5609 5602 5592 5583 5573 5563 5552 5541 5529
5659 5664 5668 5671 5672 5673 5674 5677 5676 5676 5678 5675 5687 5684 5694 5686 5677 5674 5674 5670 5671 5670 5667 5663 5661 5658 5653 5648 5644 5639 5633 5628 5622 5617 5611 5605 5598 5589 5580 5571 5561 5551 5539 5529
5649 5653 5656 5658 5659 5660 5662 5664 5661 5663 5666 5670 5675 5672 5683 5676 5672 5670 5666 5662 5663 5661 5658 5656 5654 5650 5646 5642 5637 5633 5627 5621 5616 5611 5606 5600 5594 5585 5577 5567 5559 5548 5538 5527
5633 5637 5642 5644 5648 5648 5647 5650 5653 5655 5656 5664 5659 5668 5671 5668 5661 5659 5658 5654 5653 5651 5648 5648 5645 5641 5638 5633 5629 5626 5621 5615 5610 5606 5601 5595 5589 5581 5573 5565 5556 5547 5535 5525
5618 5623 5627 5629 5631 5630 5638 5640 5642 5641 5644 5652 5650 5654 5657 5652 5649 5650 5651 5645 5641 5640 5640 5637 5635 5632 5629 5625 5622 5617 5614 5609 5603 5600 5595 5590 5583 5577 5570 5562 5554 5544 5534 5523
5604 5608 5610 5613 5614 5622 5627 5624 5629 5634 5633 5638 5643 5646 5642 5638 5638 5642 5638 5632 5633 5632 5629 5626 5624 5622 5619 5616 5612 5609 5605 5601 5597 5593 5589 5584 5579 5573 5566 5559 5551 5542 5531 5521
5590 5595 5598 5599 5597 5602 5621 5623 5621 5615 5615 5631 5630 5631 5630 5627 5627 5629 5625 5624 5621 5620 5618 5616 5614 5612 5610 5606 5603 5601 5597 5594 5589 5586 5582 5578 5573 5568 5562 5555 5548 5539 5529 5519
5576 5578 5582 5588 5585 5591 5605 5606 5605 5602 5617 5621 5615 5615 5615 5616 5614 5613 5613 5612 5611 5609 5609 5607 5604 5602 5601 5597 5595 5593 5590 5586 5583 5579 5576 5573 5568 5563 5557 5551 5544 5536 5527 5518
5563 5566 5571 5574 5576 5576 5598 5598 5597 5603 5595 5596 5599 5599 5602 5602 5601 5602 5601 5602 5601 5600 5599 5596 5595 5593 5592 5589 5586 5584 5582 5580 5576 5573 5570 5566 5563 5558 5552 5546 5539 5532 5524 5516
5539 5552 5559 5561 5569 5580 5578 5583 5584 5585 5582 5584 5584 5584 5587 5587 5587 5587 5588 5589 5589 5590 5588 5587 5585 5583 5582 5580 5577 5576 5575 5572 5570 5566 5564 5561 5557 5552 5547 5540 5534 5528 5520 5511
5528 5537 5540 5544 5562 5567 5573 5572 5570 5572 5572 5571 5571 5573 5574 5574 5574 5572 5575 5577 5578 5577 5577 5577 5575 5573 5572 5570 5569 5568 5566 5565 5562 5560 5558 5556 5551 5546 5541 5535 5530 5523 5515 5507
5515 5517 5529 5529 5548 5552 5556 5562 5561 5557 5558 5559 5560 5560 5562 5562 5562 5562 5564 5565 5566 5566 5567 5566 5564 5563 5562 5561 5560 5559 5558 5557 5554 5553 5551 5549 5544 5539 5535 5530 5524 5518 5510 5504
5496 5504 5505 5521 5538 5537 5543 5542 5540 5543 5546 5547 5547 5549 5550 5549 5550 5551 5553 5554 5555 5555 5555 5555 5554 5552 5551 5551 5550 5549 5549 5549 5548 5546 5544 5541 5537 5533 5529 5524 5518 5513 5506 5500
Wind_Speed
28 28 28 31 33 33 33 31 31 30 31 31 31 26 28 26 24 28 29 30 29 30 32 33 35 39 40 41 42 45 48 51 54 56 58 60 67 72 78 84 86 88 83 78
26 26 27 28 28 30 32 32 32 34 33 33 33 26 26 28 25 29 29 30 31 32 33 34 36 39 40 41 42 44 47 50 52 54 56 61 67 73 79 82 82 81 81 72
26 26 27 29 30 30 28 30 32 34 33 33 32 24 26 26 25 27 28 30 31 33 34 35 37 39 39 40 42 44 47 48 52 52 55 61 66 70 75 75 79 79 78 69
31 29 29 29 32 32 31 29 30 31 33 31 30 21 19 22 25 26 30 29 30 32 34 36 38 37 37 39 41 43 45 48 50 52 54 60 64 68 73 74 77 75 75 66
32 32 32 32 32 32 32 30 31 29 31 31 27 25 7 16 23 30 29 29 29 31 33 35 36 36 35 37 40 42 44 47 48 49 52 58 63 67 70 71 73 73 73 63
33 33 34 33 32 32 31 31 32 33 30 28 24 23 1 15 23 27 29 29 29 30 32 36 35 34 34 36 39 41 44 47 47 47 51 57 61 66 67 68 70 71 70 61
35 35 34 31 29 30 31 31 33 35 31 28 23 20 10 18 26 26 28 28 29 30 32 35 35 33 33 36 39 42 45 47 47 46 50 55 59 63 65 66 67 69 67 61
34 33 31 30 32 32 33 31 32 38 35 32 23 18 10 20 24 25 28 29 30 31 32 34 33 31 31 35 40 42 47 46 45 46 49 53 57 61 64 64 66 68 65 62
36 37 33 33 33 31 28 30 33 37 39 38 27 18 11 20 24 25 28 31 31 32 32 33 33 31 31 34 38 43 47 45 43 45 48 52 56 60 62 62 63 66 65 62
39 39 36 35 37 33 33 33 35 37 44 40 31 19 15 22 25 28 31 32 33 32 31 32 31 28 30 35 38 44 45 42 42 44 47 51 55 57 60 61 63 64 65 61
40 44 40 39 37 37 35 34 35 37 42 43 41 15 16 24 30 30 30 32 32 28 27 28 26 26 30 35 40 44 43 40 40 42 46 50 53 56 58 59 61 63 64 60
44 46 48 44 41 41 39 36 37 40 40 45 43 15 19 21 27 33 34 30 30 29 26 27 27 29 32 37 41 42 41 40 38 40 44 49 52 55 57 59 61 62 63 59
48 52 51 51 47 39 40 39 38 40 46 44 42 22 24 21 27 34 34 33 31 27 28 29 30 31 34 40 42 40 40 39 37 38 43 47 50 53 55 57 60 61 63 61
56 58 56 51 45 45 44 43 46 46 47 40 39 31 19 28 34 38 34 33 30 29 31 31 30 32 38 42 42 41 38 38 36 38 42 44 48 51 54 57 59 61 61 60
61 58 57 53 51 52 51 50 49 53 47 46 35 34 17 27 38 39 36 37 34 33 32 33 31 34 39 41 42 42 37 36 35 37 40 43 46 50 53 55 57 60 59 59
59 58 59 58 56 57 54 52 56 54 52 43 38 40 17 31 38 36 38 40 34 33 35 36 34 36 38 41 43 41 37 34 33 36 38 41 46 49 52 54 55 58 59 58
57 56 56 60 59 59 59 57 57 55 55 43 42 36 24 33 42 41 39 39 35 36 38 38 39 39 39 42 44 38 38 33 33 34 37 40 44 48 51 53 55 57 59 57
50 54 56 57 60 64 56 55 56 57 54 44 44 35 29 37 44 44 37 39 42 41 38 38 40 40 40 43 44 37 36 32 32 33 36 39 43 46 49 51 54 56 57 56
50 53 57 58 60 59 55 58 56 54 57 51 40 31 31 42 48 41 41 46 42 39 37 38 39 39 41 43 40 38 34 31 30 33 35 38 42 45 48 49 51 54 55 54
52 50 54 54 58 62 52 52 55 60 54 42 37 37 38 43 47 44 46 46 45 42 38 38 40 40 40 40 39 36 34 30 30 32 34 38 41 44 47 48 50 52 53 53
52 52 53 51 53 56 52 55 57 63 53 43 38 41 40 41 45 47 48 49 47 45 41 40 42 39 37 38 37 35 33 30 29 32 34 38 41 43 46 48 49 50 51 53
58 55 54 53 53 55 42 43 50 47 52 47 43 43 44 48 49 46 48 46 46 42 41 43 43 38 36 36 35 33 32 29 29 31 35 38 40 42 46 47 48 49 50 51
70 62 58 58 50 43 47 43 41 40 44 40 44 49 46 49 53 53 52 47 45 39 40 43 41 38 35 36 35 33 30 29 29 31 36 38 41 43 45 45 46 48 49 51
68 63 64 62 50 44 41 45 46 42 37 36 40 44 48 49 49 53 50 46 43 40 41 41 41 39 38 38 36 31 29 28 28 32 35 40 41 42 43 43 45 46 48 50
72 70 65 66 51 48 44 45 44 44 45 43 40 40 43 48 51 50 48 45 43 40 41 39 38 37 38 38 35 31 29 27 28 31 33 39 41 42 41 40 44 44 46 49
80 75 75 67 54 54 49 49 50 49 45 45 44 43 45 45 43 44 44 44 40 40 44 44 40 41 41 38 36 31 29 28 29 31 32 37 40 41 40 39 42 42 44 46
Wind_Direction
266 268 268 267 272 274 274 273 273 274 277 280 282 284 285 285 290 285 291 290 291 289 291 295 300 306 310 312 315 318 322 326 327 328 333 335 331 331 330 333 335 337 342 341
269 269 270 271 274 276 274 272 271 273 276 278 280 281 281 286 283 287 292 291 289 289 291 294 299 306 309 312 316 318 322 326 326 330 333 334 330 331 331 334 338 341 343 342
267 269 273 278 281 282 277 272 269 273 273 277 281 286 279 281 282 282 286 284 287 289 291 294 299 305 309 313 315 318 323 326 326 330 334 333 331 334 337 339 339 342 344 346
272 276 277 280 286 288 285 279 270 273 276 278 278 289 274 276 276 277 274 280 284 286 288 292 297 305 310 314 314 318 323 326 327 331 335 333 332 334 336 339 341 345 347 349
268 274 277 279 284 285 288 282 277 273 277 279 287 290 262 267 270 271 278 278 281 284 288 292 300 304 310 312 314 319 323 326 327 332 333 332 333 335 338 341 344 347 349 350
268 271 275 277 278 280 284 285 282 278 279 284 292 290 112 272 269 270 273 279 283 287 290 294 298 304 309 311 314 318 324 326 328 331 332 332 334 336 340 342 346 349 350 350
268 269 271 275 276 279 281 280 284 284 283 285 283 285 302 273 269 270 275 281 286 289 292 294 297 305 309 309 315 317 325 325 327 330 331 331 334 336 340 342 346 351 351 350
260 262 267 273 275 274 276 281 282 286 283 281 278 293 273 265 272 278 280 282 285 289 292 295 299 306 306 310 316 319 324 324 327 329 330 331 332 337 340 343 347 352 352 352
255 259 265 270 270 270 275 277 277 280 281 282 291 304 281 270 272 278 278 281 286 289 294 296 302 305 303 310 315 319 323 323 326 328 329 330 333 337 341 344 349 353 353 352
253 257 260 265 267 269 272 270 274 278 282 283 289 297 299 271 269 276 282 283 287 295 303 307 307 299 303 310 316 319 322 322 325 327 327 330 333 336 340 344 349 353 354 353
252 259 258 259 264 266 263 268 270 273 279 284 284 297 306 280 283 283 279 281 287 299 303 302 301 302 305 310 316 317 318 321 322 326 327 329 332 335 339 343 348 352 355 353
252 256 260 260 258 261 264 262 265 272 275 275 282 302 302 298 291 287 286 289 295 301 299 298 303 302 305 311 314 313 316 317 320 322 326 329 331 335 339 344 348 352 354 354
247 252 256 257 259 261 265 265 261 263 267 271 276 295 287 286 279 279 284 291 298 300 295 298 300 302 306 311 311 311 312 314 317 321 325 328 330 334 338 343 347 350 354 355
241 246 249 254 260 258 258 261 263 261 264 275 274 282 286 284 279 279 285 291 294 299 298 294 295 301 308 308 308 308 309 311 315 320 324 326 329 333 336 342 346 349 352 355
244 247 252 254 254 256 257 258 260 263 266 269 281 280 292 261 267 274 286 286 295 299 293 289 294 302 305 307 308 306 306 308 313 317 321 325 327 331 335 340 345 348 352 355
256 254 253 254 254 256 258 261 262 262 266 274 280 274 283 265 270 272 274 282 288 289 287 289 292 298 302 305 306 304 301 305 309 314 321 324 327 329 333 339 344 347 352 354
254 255 255 255 256 258 253 254 263 268 269 276 272 277 279 272 271 272 276 282 284 284 284 288 287 294 297 301 304 301 298 303 307 312 321 324 326 328 331 337 343 347 352 354
251 254 254 254 254 252 250 257 263 264 270 275 275 275 273 269 269 273 278 275 275 278 287 284 285 287 292 298 303 295 296 300 305 312 318 323 324 328 331 336 341 345 351 355
250 250 253 254 255 254 248 251 261 266 268 270 275 274 262 263 267 274 274 270 276 282 280 282 283 284 289 296 297 292 294 296 303 311 317 320 323 327 329 336 339 344 350 354
253 256 255 255 253 250 249 254 264 268 262 277 277 271 263 263 267 271 267 271 273 274 275 279 280 282 289 292 292 293 292 294 301 309 314 317 322 325 329 334 338 343 348 353
255 256 257 259 262 253 252 256 259 257 268 283 277 269 263 262 265 266 269 270 270 272 274 276 277 283 285 289 289 291 289 292 300 306 315 317 320 324 328 333 336 341 346 351
254 258 260 258 261 253 264 271 265 275 272 273 273 272 270 268 267 269 270 271 270 270 271 272 273 276 282 288 288 285 287 291 298 306 316 315 319 323 328 332 333 338 343 347
250 257 262 261 266 265 260 260 269 271 272 274 268 267 267 270 271 271 273 273 274 270 270 272 268 273 281 287 285 282 285 288 298 307 315 316 318 322 326 330 332 335 341 344
253 255 256 258 256 262 263 261 264 270 270 268 269 268 264 263 266 268 270 272 275 272 271 273 269 275 278 283 284 279 279 286 297 308 314 316 317 319 325 328 330 332 339 342
250 249 254 257 251 252 259 262 262 262 260 260 261 260 263 262 264 268 271 273 277 274 268 271 275 273 277 282 281 275 275 285 295 304 313 315 316 317 322 326 328 329 335 341
248 250 251 256 259 260 256 259 255 257 257 253 257 259 261 260 264 268 271 275 276 277 268 269 276 276 278 280 277 271 273 283 293 304 311 312 314 314 320 322 326 328 332 339